COSMOS 415

Satellite information

Favourite Embed

Satellite Type and Status

PAYLOADIN ORBIT

Key statistics

Satellite COSMOS 415 at a glance.

Uptime

19845

Days in orbit

Revolutions

≈ 12.5

Per day

Orbit

LEO

Low Earth Orbit

Inclination

74.0

Latest

Satellite identification and parameters

Extended collection of information and parameters for COSMOS 415.

Object identification

Identified? True

Debris? False

Object name: COSMOS 415

International designator: 1971-041E

Object number (NORAD): 5214

Object ID (CCSDS): 5214

Country: COMMONWEALTH OF INDEPENDENT STATES (CIS)

Current information (Y/N): Y

RCS size: MEDIUM

Orbital parameters

Period: 115.432 minutes

Inclination: 74.0127 deg

SMA: 7853.142 km

Apoapsis: 1499.934 km

Periapsis: 1450.08 km

RAAN: 105.5709 deg

Eccentricy: 0.00317416

Argument of periapsis: 20.7016 deg

Mean anomaly: 339.5311 deg

Mean motion: 12.47491422 rev/day

Mean motion (dot): 0.00000007 rev/day2

B* drag term: 0.00015473936 1/REarth

Two-line elements (TLE)

Creation date: Sept. 4, 2025, 10:13 a.m.

Reference frame: TEME

Reference center: EARTH

Epoch: Sept. 4, 2025, 1:54 a.m. UTC

TLE line 0: 0 COSMOS 415

TLE line 1: 1 05214U 71041E 25247.07970907 .00000007 00000-0 15474-3 0 9995

TLE line 2: 2 05214 74.0127 105.5709 0031742 20.7016 339.5311 12.47491422474001

Live tracking on map

Real-time ground track for satellite COSMOS 415.

In-orbit conjunctions

There are no conjunctions computed for COSMOS 415, at the moment. Check back to stay up to date, as we update our databases every day.

Go to all conjunctions

Associated space launch

Military communications satellites

COSMOS 415 was lifted into orbit during the mission ‘Kosmos-3M | Strela-1M 9-16’, on board a Kosmos-3M space rocket.

The launch took place on May 7, 1971, 2:20 p.m. from 132/1 (132L).

For more information about the launch, click the button.

Launch to space Kosmos-3M | Strela-1M 9-16
Kosmos-3M | Strela-1M 9-16

Agency: N/A

Status: Launch Successful

Launch date: May 7, 1971, 2:20 p.m. UTC

Rocket: Kosmos-3M

Launch pad: 132/1 (132L)

Location: Plesetsk Cosmodrome, Russian Federation

...

Latest news about this satellite

There are no fresh news available about this satellite. Check back as we update our databases every day.


Newsletter sign-up

Weekly statistics, charts and insights to help you stay on top of the space industry.